Weather Roundup
Issued by NWS

Home | Current Version | Previous Version | Graphics & Text | Print | Product List | Glossary Off
Versions: 1 2 3 4 5 6 7 8 9 10 11 12 13 14 15 16 17 18 19 20 21 22 23 24 25 26 27 28 29 30 31 32 33 34 35 36 37 38 39 40 41 42 43 44 45 46 47 48 49 50

976
NZUS93 KARX 131510
HRRWXR

CURRENT HOURLY OBSERVATIONS ACROSS
MUCH OF THE UPPER MISSISSIPPI VALLEY
NATIONAL WEATHER SERVICE LA CROSSE WI
900 AM CST SAT FEB 13 2016


...SOUTHEAST MINNESOTA...


CITY           SKY/WX    TMP DP  RH WIND       PRES   REMARKS
ROCHESTER      CLOUDY    -7 -14  71 NW6       30.59R WCI -20
ROCHESTER/MAYO FAIR      -3 -12  67 W6        30.61R WCI -16
WINONA         MOSUNNY    1 -13  51 CALM      30.66F
AUSTIN         CLOUDY    -6 -11  77 CALM      30.60R
ALBERT LEA     CLOUDY    -2 -11  65 CALM      30.59S
DODGE CENTER   CLOUDY     1  -8  66 CALM      30.57S
PRESTON        MOSUNNY   -7 -16  66 N3        30.59R
OWATONNA       CLOUDY    -6 -13  71 CALM      30.60F
FARIBAULT      MOSUNNY   -6 -13  71 S1        30.61S
$$

...ELSEWHERE IN MINNESOTA...


CITY           SKY/WX    TMP DP  RH WIND       PRES   REMARKS
MINNEAPOLIS    CLOUDY    -2 -11  65 CALM      30.64S
INTNL FALLS    CLOUDY   -21 -25  81 CALM      30.55R
DULUTH         SUNNY    -13 -21  67 NW6       30.50F WCI -27
RED WING       MOSUNNY   -4 -15  59 W3        30.64S
REDWOOD FALLS  CLOUDY    -2  -9  72 SE8       30.60F WCI -17
MANKATO        CLOUDY     0  -9  65 CALM      30.62F
WORTHINGTON    CLOUDY    -2 -11  65 SE8       30.55R WCI -17
FAIRMONT       CLOUDY    -2  -9  71 CALM      30.59R
$$

...SOUTHWEST WISCONSIN...


CITY           SKY/WX    TMP DP  RH WIND       PRES   REMARKS
LA CROSSE      CLOUDY    -2 -14  56 N5        30.65S WCI -12
PRAIRIE DU CHI MOSUNNY   -1 -13  55 CALM      30.66S
BOSCOBEL       CLOUDY     0 -10  63 VRB3      30.66R
LONE ROCK      MOSUNNY    0 -14  51 W6        30.64R WCI -12
PLATTEVILLE    CLOUDY     0 -11  60 W6        30.61R WCI -12
FORT MC COY    MOSUNNY   -2 -14  57 N5        30.62S WCI -12
CAMP DOUGLAS   SUNNY     -4 -15  59 NW8       30.60R WCI -19
VIROQUA        FAIR      -5 -16  59 NW6       30.56S WCI -18
WIS DELLS      CLOUDY    -2 -15  53 N5        30.58R WCI -13
$$

...ELSEWHERE IN WISCONSIN...


CITY           SKY/WX    TMP DP  RH WIND       PRES   REMARKS
MILWAUKEE      MOSUNNY    2 -11  54 NW12      30.57R WCI -15
MADISON        SUNNY     -1 -13  56 NW13      30.59R WCI -19
GREEN BAY      SUNNY     -2 -11  65 W13       30.55R WCI -20
EAU CLAIRE     MOSUNNY   -7 -17  62 VRB3      30.62S
BLACK RVR FLS  FAIR      -3 -17  51 W5        30.62R WCI -14
MEDFORD        CLOUDY    -9 -17  69 NW6       30.51R WCI -23
WAUSAU         CLOUDY    -6 -14  68 W10       30.53R WCI -24
WIS RAPIDS     CLOUDY    -4 -15  59 NW8       30.59R WCI -19
MARSHFIELD     CLOUDY    -7 -17  62 NW10      30.53R WCI -25
RICE LAKE      CLOUDY    -9 -18  63 CALM      30.61S
$$

...NORTHEAST IOWA...


CITY           SKY/WX    TMP DP  RH WIND       PRES   REMARKS
WATERLOO       CLOUDY    -1  -9  68 CALM      30.66R
DUBUQUE        CLOUDY     2 -10  57 N9        30.61R WCI -13
DECORAH        MOSUNNY   -4 -15  59 NW5       30.59S WCI -15
MASON CITY     CLOUDY    -3 -10  72 CALM      30.62R
CHARLES CITY   MOSUNNY   -2 -13  60 CALM      30.62F
OELWEIN        MOSUNNY   -2 -13  60 NW5       30.64R WCI -12
$$

...ELSEWHERE IN IOWA...


CITY           SKY/WX    TMP DP  RH WIND       PRES   REMARKS
DES MOINES     PTSUNNY    6  -3  66 CALM      30.65F
IOWA CITY      SUNNY      7  -7  52 N5        30.69R WCI  -2
FORT DODGE     CLOUDY     0  -6  78 CALM      30.63R
MARSHALLTOWN   CLOUDY     2  -7  66 NE5       30.64R WCI  -8
CEDAR RAPIDS   SUNNY      4  -6  63 VRB6      30.64R WCI  -7
$$

...NORTHERN ILLINOIS...


CITY           SKY/WX    TMP DP  RH WIND       PRES   REMARKS
CHICAGO-OHARE  MOSUNNY    6  -9  50 W10       30.58R WCI  -9
CHICAGO-MIDWAY MOSUNNY    8 -10  43 NW12      30.59R WCI  -7
MOLINE         SUNNY      8  -8  48 N6        30.66R WCI  -2
ROCKFORD       MOSUNNY    5 -10  50 NW12      30.62R WCI -11
PEORIA         MOSUNNY    9  -8  46 VRB6      30.66R WCI  -1
$$

NOTE: "FAIR" INDICATES FEW OR NO CLOUDS BELOW 12,000 FEET WITH NO
SIGNIFICANT WEATHER AND/OR OBSTRUCTIONS TO VISIBILITY. WIND
SPEEDS ARE IN MILES-PER-HOUR.




USA.gov is the U.S. government's official web portal to all federal, state and local government web resources and services.